FW9465 Weather Reports


Display with metric or nautical units.
time (UTC)temp
F
wind
direction
speed
MPH
gust
MPH
rain 1hr
in
rain 24hr
in
rain mn
in
humidity
%
barometer
mb
20260831080419 81 182 4.0 6.0 0.00 0.00 0.00 60 1014.6
20260831075420 81 179 5.0 10.0 0.00 0.00 0.00 59 1014.5
20260831074422 81 191 5.0 10.0 0.00 0.00 0.00 59 1014.6
20260831073420 81 189 5.0 9.0 0.00 0.00 0.00 59 1014.6
20260831072421 81 170 4.0 8.0 0.00 0.00 0.00 57 1014.5
20260831071422 82 164 5.0 9.0 0.00 0.00 0.00 56 1014.5
20260831065518 82 171 3.0 5.0 0.00 0.00 0.00 55 1014.6
20260831064522 82 164 5.0 9.0 0.00 0.00 0.00 53 1014.7
20260831063619 82 172 6.0 12.0 0.00 0.00 0.00 52 1014.6
20260831062636 83 164 5.0 9.0 0.00 0.00 0.00 51 1014.6
20260831061718 83 158 4.0 8.0 0.00 0.00 0.00 51 1014.6
20260831060721 83 163 5.0 8.0 0.00 0.00 0.00 51 1014.5
20260831055720 83 163 5.0 8.0 0.00 0.00 0.00 50 1014.6
20260831054720 83 163 4.0 6.0 0.00 0.00 0.00 49 1014.6
20260831053818 83 164 4.0 7.0 0.00 0.00 0.00 50 1014.7
20260831052819 83 159 3.0 5.0 0.00 0.00 0.00 49 1014.5
20260831051836 84 159 4.0 6.0 0.00 0.00 0.00 49 1014.4
20260831050921 84 168 5.0 9.0 0.00 0.00 0.00 48 1014.4
20260831045934 84 157 5.0 8.0 0.00 0.00 0.00 48 1014.4
20260831044919 84 161 4.0 8.0 0.00 0.00 0.00 46 1014.2
20260831043937 85 160 4.0 5.0 0.00 0.00 0.00 45 1014.2
20260831043020 85 161 3.0 5.0 0.00 0.00 0.00 45 1014.3
20260831042022 86 157 4.0 7.0 0.00 0.00 0.00 44 1014.4
20260831040018 87 160 5.0 7.0 0.00 0.00 0.00 43 1014.1
20260831034021 87 157 5.0 7.0 0.00 0.00 0.00 41 1014.0
20260831033119 88 158 5.0 8.0 0.00 0.00 0.00 40 1014.0
20260831032120 88 156 5.0 6.0 0.00 0.00 0.00 41 1013.9
20260831031136 88 157 5.0 7.0 0.00 0.00 0.00 40 1013.8
20260831024335 89 153 7.0 9.0 0.00 0.00 0.00 39 1013.4
20260831023320 89 155 6.0 8.0 0.00 0.00 0.00 37 1013.3
20260831022319 89 146 5.0 9.0 0.00 0.00 0.00 38 1013.2
20260831020420 90 157 4.0 6.0 0.00 0.00 0.00 36 1012.9
20260831014434 91 151 5.0 7.0 0.00 0.00 0.00 35 1012.7
20260831013434 91 146 6.0 7.0 0.00 0.00 0.00 35 1012.6
20260831012420 92 156 5.0 7.0 0.00 0.00 0.00 35 1012.5
20260831010534 94 147 5.0 7.0 0.00 0.00 0.00 32 1012.4
20260831005620 95 152 5.0 7.0 0.00 0.00 0.00 31 1012.4
20260831004719 96 150 5.0 8.0 0.00 0.00 0.00 31 1012.3
20260831003721 96 151 5.0 8.0 0.00 0.00 0.00 30 1012.4
20260831002720 97 133 4.0 7.0 0.00 0.00 0.00 30 1012.3
20260831001818 97 148 9.0 13.0 0.00 0.00 0.00 30 1012.3
20260831000819 98 150 7.0 11.0 0.00 0.00 0.00 30 1012.3
20260830235918 99 156 11.0 14.0 0.00 0.00 0.00 28 1012.3
20260830235018 99 157 8.0 10.0 0.00 0.00 0.00 29 1012.4
20260830234019 99 151 9.0 12.0 0.00 0.00 0.00 28 1012.4
20260830233036 99 158 8.0 13.0 0.00 0.00 0.00 28 1012.4
20260830232019 100 152 8.0 11.0 0.00 0.00 0.00 27 1012.5
20260830230020 100 139 5.0 8.0 0.00 0.00 0.00 26 1012.5
20260830225018 100 143 7.0 9.0 0.00 0.00 0.00 27 1012.4
20260830224019 100 151 7.0 10.0 0.00 0.00 0.00 26 1012.6
20260830223021 100 142 3.0 8.0 0.00 0.00 0.00 26 1012.5
20260830222020 100 87 9.0 14.0 0.00 0.00 0.00 27 1012.5
20260830221022 101 154 7.0 11.0 0.00 0.00 0.00 27 1012.6
20260830220117 100 153 6.0 10.0 0.00 0.00 0.00 27 1012.4
20260830215119 101 134 5.0 10.0 0.00 0.00 0.00 27 1012.4
20260830214120 100 155 10.0 13.0 0.00 0.00 0.00 27 1012.7
20260830213118 101 159 8.0 13.0 0.00 0.00 0.00 27 1012.7
20260830213036 101 156 6.0 11.0 0.00 0.00 0.00 27 1012.7
20260830211118 101 144 5.0 13.0 0.00 0.00 0.00 28 1013.0
20260830210121 101 149 7.0 11.0 0.00 0.00 0.00 27 1012.9
20260830205119 101 170 9.0 14.0 0.00 0.00 0.00 27 1013.2
20260830204119 100 160 9.0 14.0 0.00 0.00 0.00 27 1013.3
20260830203120 99 173 6.0 10.0 0.00 0.00 0.00 28 1013.5
20260830202219 99 165 7.0 9.0 0.00 0.00 0.00 29 1013.6
20260830200318 99 166 12.0 16.0 0.00 0.00 0.00 29 1013.9
20260830195319 99 165 7.0 13.0 0.00 0.00 0.00 28 1014.0
20260830193417 98 163 7.0 10.0 0.00 0.00 0.00 30 1014.3
20260830192419 98 156 9.0 14.0 0.00 0.00 0.00 30 1014.4
20260830191434 98 152 11.0 14.0 0.00 0.00 0.00 31 1014.5
20260830185518 98 174 8.0 14.0 0.00 0.00 0.00 31 1014.7
20260830184517 97 151 5.0 8.0 0.00 0.00 0.00 32 1014.8
20260830183519 97 133 5.0 9.0 0.00 0.00 0.00 32 1014.9
20260830182521 97 155 10.0 16.0 0.00 0.00 0.00 33 1015.1
20260830181519 97 150 11.0 16.0 0.00 0.00 0.00 33 1015.3
20260830180519 97 157 8.0 11.0 0.00 0.00 0.00 33 1015.4
20260830174618 96 153 7.0 10.0 0.00 0.00 0.00 33 1015.6
20260830173618 96 151 13.0 18.0 0.00 0.00 0.00 33 1015.8
20260830172635 96 160 13.0 18.0 0.00 0.00 0.00 34 1016.0
20260830171719 96 178 9.0 13.0 0.00 0.00 0.00 36 1016.1
20260830165717 95 194 5.0 8.0 0.00 0.00 0.00 37 1016.4
20260830164718 95 192 7.0 12.0 0.00 0.00 0.00 39 1016.5
20260830163718 95 168 7.0 16.0 0.00 0.00 0.00 40 1016.7
20260830161733 94 195 6.0 10.0 0.00 0.00 0.00 42 1016.7
20260830160733 94 161 11.0 15.0 0.00 0.00 0.00 44 1016.6
20260830155818 94 164 6.0 10.0 0.00 0.00 0.00 44 1016.7
20260830154818 94 177 6.0 8.0 0.00 0.00 0.00 45 1016.7
20260830153819 93 169 6.0 8.0 0.00 0.00 0.00 46 1016.7
20260830152818 92 181 4.0 9.0 0.00 0.00 0.00 48 1016.7
20260830151834 91 172 8.0 12.0 0.00 0.00 0.00 49 1016.7
20260830150919 91 205 9.0 14.0 0.00 0.00 0.00 49 1016.6
20260830145935 90 190 4.0 7.0 0.00 0.00 0.00 49 1016.6
20260830144918 89 184 5.0 11.0 0.00 0.00 0.00 51 1016.5
20260830143934 88 188 7.0 14.0 0.00 0.00 0.00 52 1016.6
20260830143018 88 226 8.0 15.0 0.00 0.00 0.00 53 1016.6
20260830142117 86 185 7.0 10.0 0.00 0.00 0.00 54 1016.7
20260830141118 85 221 5.0 10.0 0.00 0.00 0.00 57 1016.5
20260830140118 85 211 4.0 8.0 0.00 0.00 0.00 58 1016.7
20260830135218 84 198 5.0 10.0 0.00 0.00 0.00 60 1016.5
20260830134217 84 199 6.0 11.0 0.00 0.00 0.00 62 1016.5
20260830133217 83 197 4.0 9.0 0.00 0.00 0.00 64 1016.4
20260830132218 82 185 5.0 8.0 0.00 0.00 0.00 66 1016.4
20260830131218 81 162 3.0 7.0 0.00 0.00 0.00 68 1016.5
20260830130218 79 160 4.0 7.0 0.00 0.00 0.00 71 1016.4
20260830125217 78 157 2.0 4.0 0.00 0.00 0.00 72 1016.2
20260830123217 77 176 1.0 4.0 0.00 0.00 0.00 75 1016.1
20260830120218 77 190 2.0 3.0 0.00 0.00 0.00 74 1015.7
20260830114219 77 202 2.0 4.0 0.00 0.00 0.00 73 1015.5
20260830113316 77 188 3.0 5.0 0.00 0.00 0.00 72 1015.4
20260830112317 77 182 2.0 4.0 0.00 0.00 0.00 72 1015.3
20260830111338 77 189 2.0 5.0 0.00 0.00 0.00 71 1015.3
20260830110416 77 165 1.0 3.0 0.00 0.00 0.00 70 1015.1
20260830105419 78 158 2.0 5.0 0.00 0.00 0.00 70 1015.0
20260830104517 78 179 3.0 6.0 0.00 0.00 0.00 69 1015.0
20260830103518 78 188 3.0 5.0 0.00 0.00 0.00 69 1014.9
20260830102617 78 168 3.0 6.0 0.00 0.00 0.00 68 1014.8
20260830101617 78 169 3.0 6.0 0.00 0.00 0.00 68 1014.6
20260830100618 78 180 2.0 5.0 0.00 0.00 0.00 67 1014.6
20260830095618 79 161 4.0 6.0 0.00 0.00 0.00 66 1014.6
20260830094617 79 188 3.0 5.0 0.00 0.00 0.00 65 1014.6
20260830093617 79 162 3.0 6.0 0.00 0.00 0.00 64 1014.7
20260830092618 79 164 4.0 7.0 0.00 0.00 0.00 64 1014.7
20260830090633 80 161 3.0 6.0 0.00 0.00 0.00 62 1014.6
20260830085633 80 161 3.0 6.0 0.00 0.00 0.00 61 1014.6
20260830084718 81 181 4.0 6.0 0.00 0.00 0.00 61 1014.6
20260830083733 81 179 3.0 6.0 0.00 0.00 0.00 59 1014.6
20260830082732 81 167 4.0 7.0 0.00 0.00 0.00 59 1014.6